Wetbulb
56.58 56.96 57.10 57.11 57.29 56.85 56.77 56.99 57.09 55.75 54.36 54.25 54.72 54.22 54.22 54.80 54.90 55.08 59.73 61.36 58.15 57.54 58.29 58.18 58.38 58.59 59.20 59.54 58.67 58.36 59.71 59.62 60.13 56.90 56.13 56.05 54.23 55.72 54.31 55.97 54.70 53.94 52.85 52.22 53.04 50.76 48.79 60.43 61.42 57.53 61.72 64.74 65.74 66.36
56.56 56.66 56.70 56.94 56.92 56.59 56.57 56.77 56.39 54.76 54.29 54.31 54.21 53.84 53.68 54.19 54.59 54.09 57.76 60.50 59.40 56.49 58.18 60.72 60.64 61.12 60.07 59.84 58.90 59.97 58.45 58.76 60.53 57.61 58.37 58.95 55.14 57.04 54.90 51.19 57.91 52.43 56.09 55.69 55.16 56.35 60.58 62.58 62.92 64.85 64.87 64.43 66.26 66.91
56.07 56.05 56.19 56.45 56.33 56.04 56.39 56.57 55.32 54.37 54.16 54.18 53.41 53.27 53.47 53.69 54.18 54.02 57.08 58.27 58.27 57.38 58.52 59.31 58.43 61.22 62.18 61.94 63.03 57.49 59.49 60.08 61.17 61.23 61.72 60.21 54.45 58.50 52.92 53.44 54.87 57.30 58.69 56.61 56.71 59.85 60.81 62.13 63.55 64.20 65.88 65.11 65.72 65.89
55.49 55.83 56.07 56.11 55.88 55.88 56.28 55.76 54.77 54.26 54.02 53.96 52.95 52.75 53.10 53.52 53.87 53.67 56.47 58.76 57.41 58.12 54.26 57.10 61.03 59.66 61.17 61.58 61.76 61.66 60.30 61.47 62.45 62.46 59.75 57.80 55.13 58.80 55.43 56.42 55.57 57.61 58.68 57.13 57.42 59.93 60.86 61.74 62.73 63.92 63.81 64.11 63.41 63.33
55.27 55.69 55.91 55.65 55.50 55.90 56.02 55.02 54.49 53.79 53.94 53.20 52.37 52.39 52.82 53.24 53.37 54.69 57.81 58.93 59.26 56.41 54.36 56.92 59.12 59.45 60.91 60.52 60.58 60.44 59.98 59.51 59.20 56.90 55.72 54.64 58.69 57.02 58.20 56.61 53.70 57.78 56.45 54.79 53.01 58.51 60.27 60.43 63.43 63.66 62.97 62.36 62.07 61.81
54.71 55.31 55.53 55.25 55.27 55.65 55.14 54.43 54.18 53.73 53.42 52.74 52.09 52.05 52.26 52.41 52.83 56.73 56.35 58.90 59.86 59.99 55.76 53.08 57.97 58.10 59.30 60.03 60.14 60.09 60.09 60.09 59.68 58.17 57.76 58.77 58.28 56.18 53.33 51.80 55.72 56.82 57.39 59.16 57.20 60.64 60.04 61.29 62.97 63.07 62.36 62.03 61.90 62.11
54.73 54.97 55.17 55.21 55.39 55.07 54.37 53.90 53.61 53.79 53.14 52.16 51.53 51.58 51.71 51.93 54.83 55.10 54.95 56.65 55.36 59.74 56.17 52.93 53.82 57.27 58.33 59.34 59.65 59.03 59.65 60.61 59.54 59.07 56.19 58.39 57.08 56.21 54.53 51.65 55.47 58.19 59.66 60.23 60.84 61.18 59.97 61.36 60.87 62.50 62.11 62.02 60.61 62.80
54.45 54.65 54.89 55.11 55.21 54.72 54.10 53.40 53.49 53.09 52.33 51.49 51.28 51.60 51.80 51.88 52.35 54.91 58.37 52.95 56.12 56.78 56.95 52.10 53.72 53.78 58.06 56.63 56.14 60.40 57.62 58.53 58.38 58.88 58.28 55.88 56.72 56.15 52.27 55.18 56.62 57.70 58.68 59.93 60.76 61.94 61.81 62.74 62.46 62.46 62.77 62.34 61.08 60.92
54.31 54.41 54.73 54.87 54.57 54.06 53.40 53.39 53.25 52.31 51.28 50.90 50.82 51.59 54.66 54.58 55.35 57.86 54.28 54.57 57.70 56.66 53.25 53.88 50.94 50.25 57.89 57.97 59.64 57.36 58.92 54.38 58.62 55.23 56.28 57.07 54.82 52.28 56.14 56.67 57.92 59.44 59.03 58.59 61.24 60.96 61.21 60.71 60.90 61.31 61.51 61.17 60.41 60.79
54.29 54.21 54.37 54.35 53.80 53.14 53.11 53.03 51.53 50.98 50.59 50.51 52.29 53.61 52.34 56.53 55.55 55.38 56.62 55.63 55.83 56.64 55.81 52.44 56.88 53.00 56.05 55.72 55.05 55.86 56.65 54.40 51.88 55.14 57.62 53.58 53.11 57.97 58.85 60.00 60.74 60.53 60.48 60.65 58.99 58.87 59.66 59.86 60.36 60.59 60.72 61.78 61.65 61.57
54.07 54.09 53.59 53.22 52.76 52.82 52.80 52.31 51.07 50.17 50.09 52.61 52.47 54.27 57.13 53.88 56.68 55.68 52.66 51.55 53.05 50.67 53.87 54.38 54.17 52.79 57.40 53.21 54.21 58.01 54.38 54.71 49.70 53.29 52.99 52.81 52.35 57.06 58.96 59.78 61.47 61.63 61.29 61.39 61.92 62.11 62.18 62.08 61.04 61.20 60.94 61.10 61.14 60.71
53.70 53.19 52.80 52.59 52.30 52.20 52.27 51.33 50.78 49.38 53.82 52.65 54.60 54.57 57.41 55.18 53.66 49.78 48.96 52.00 49.83 49.43 52.91 52.12 53.53 54.08 55.71 57.96 55.49 56.11 53.28 54.48 48.51 56.13 52.36 49.88 55.52 59.53 60.36 60.76 61.22 61.78 61.58 61.59 62.37 61.66 61.49 61.16 60.96 60.37 59.76 59.09 58.83 58.72
52.69 52.18 51.96 51.79 51.83 51.97 51.49 50.87 50.10 50.75 51.77 55.21 54.04 53.13 53.22 51.76 42.97 44.12 42.95 47.12 49.19 52.11 53.23 53.19 51.67 53.79 55.23 55.57 55.61 54.59 50.68 49.73 55.55 51.14 49.84 53.33 58.54 59.97 60.77 61.10 60.92 62.07 61.69 61.25 60.66 60.81 60.25 59.24 58.83 58.17 57.52 57.89 57.42 57.04
51.49 51.26 51.25 51.69 51.97 51.56 51.34 50.70 50.70 50.58 52.58 52.02 50.20 40.93 47.11 45.89 47.68 49.21 50.29 52.25 53.77 55.18 54.12 54.90 53.20 53.74 56.61 52.50 55.37 49.45 53.02 53.49 47.72 46.05 47.34 53.88 59.14 60.25 61.22 61.46 60.79 59.83 59.76 59.59 59.45 58.63 57.97 57.71 57.52 56.87 56.58 56.40 55.86 55.18
50.81 51.03 51.35 51.03 51.12 51.42 50.93 50.59 50.80 53.10 52.10 49.34 49.99 42.79 45.88 50.86 52.80 54.24 55.25 54.15 55.17 57.76 56.02 54.47 56.71 55.51 53.40 51.34 53.70 51.81 48.00 45.73 47.76 47.46 53.42 57.96 60.42 60.87 61.27 60.76 59.06 58.62 57.94 58.06 58.47 57.59 57.12 56.60 55.48 55.20 56.27 56.25 55.76 55.30
50.19 49.48 49.20 50.56 50.85 50.82 50.18 50.65 51.44 53.21 51.87 50.07 48.82 46.67 48.88 48.60 50.23 51.87 52.90 53.08 56.41 55.99 56.96 57.14 52.58 50.68 49.69 51.83 48.13 46.37 45.07 43.86 49.32 54.70 57.93 59.41 60.14 60.66 60.25 59.40 59.27 60.07 59.75 58.86 58.40 57.46 56.58 55.19 54.71 55.32 55.56 55.51 55.11 54.56
48.05 46.34 50.05 50.92 50.67 50.44 50.94 51.09 51.62 49.71 50.47 46.93 47.42 49.81 48.84 49.89 51.26 51.74 53.71 52.07 55.24 54.32 51.19 52.33 47.75 47.11 52.85 48.64 46.58 52.15 49.10 53.73 56.96 58.69 60.71 61.06 60.61 58.93 57.52 60.29 60.58 60.52 59.76 59.08 58.43 57.75 56.27 55.32 55.20 54.95 53.24 53.38 53.28 53.30
46.58 49.30 50.52 50.31 50.38 50.48 50.36 50.97 50.48 48.95 44.80 47.36 46.57 49.29 50.27 52.70 52.92 52.19 52.59 52.05 53.25 55.21 54.32 51.18 54.07 48.82 47.85 45.52 48.65 53.14 56.59 59.59 58.90 58.34 59.18 60.95 61.52 61.51 62.23 61.00 61.78 61.63 60.47 59.67 58.71 57.59 55.81 54.33 53.86 53.15 52.85 54.03 53.40 53.48
48.42 49.60 50.20 50.22 50.63 49.08 46.88 48.11 50.92 44.40 45.85 50.14 51.36 51.80 51.46 51.93 52.50 52.26 52.56 54.13 54.86 56.75 55.33 53.85 49.45 48.13 48.78 53.46 54.59 56.01 57.05 57.13 57.00 57.73 58.30 60.08 60.89 60.51 60.64 61.13 61.56 62.03 61.24 59.88 58.46 57.20 55.70 54.72 55.07 54.10 54.28 54.64 52.90 52.21
49.96 50.11 49.79 49.17 49.41 49.88 46.17 46.45 50.10 46.05 44.57 48.00 49.93 48.23 49.64 49.64 49.86 50.46 51.21 52.41 52.89 51.98 51.31 50.37 51.01 53.28 53.83 56.18 57.91 57.42 57.94 58.63 57.30 55.34 55.64 57.14 58.98 60.34 59.91 60.09 60.33 61.48 60.80 60.00 59.03 52.00 54.85 53.73 54.19 54.29 55.11 54.64 54.59 53.17
48.27 48.79 49.26 49.05 49.60 51.40 47.10 44.80 45.74 48.26 48.07 46.79 48.38 47.64 47.21 49.30 47.95 48.11 49.09 50.96 48.65 49.53 49.50 53.01 54.02 57.39 58.76 59.69 59.89 59.71 58.97 58.41 56.64 56.30 55.21 54.93 57.62 59.09 59.45 60.32 61.75 61.42 61.30 59.53 56.97 54.06 51.01 54.61 54.79 54.71 54.00 53.92 56.21 56.10
47.63 48.92 47.97 49.00 48.37 47.74 48.04 48.94 47.49 48.75 47.41 48.04 47.60 48.34 47.03 46.15 46.73 47.74 50.98 47.62 47.93 50.43 52.32 53.00 54.05 55.33 56.33 57.18 57.76 58.55 58.82 58.87 59.01 57.71 49.17 52.87 56.26 56.57 56.92 57.94 58.46 58.23 58.79 59.56 58.57 57.76 56.48 55.78 55.67 55.01 54.71 55.23 51.74 55.83
49.53 49.34 47.43 46.73 44.03 41.86 40.92 49.45 44.62 45.94 43.39 45.38 48.38 46.16 47.04 47.77 49.94 51.44 47.34 49.19 49.75 52.30 52.33 52.65 54.20 55.67 55.32 56.72 57.64 58.37 58.93 57.86 55.70 55.87 56.82 57.21 57.60 57.85 57.42 57.20 57.73 57.49 58.47 59.01 61.46 60.59 57.99 51.73 52.69 54.60 55.44 55.44 55.95 55.92
48.15 46.68 42.74 42.82 44.36 39.86 46.40 43.88 47.11 45.84 46.15 44.98 44.83 42.64 45.32 48.40 50.68 48.38 45.91 49.09 51.97 54.93 53.74 54.12 53.87 52.81 53.80 54.69 53.17 53.69 54.76 55.41 55.06 55.12 56.27 56.02 55.54 55.81 56.55 56.62 56.96 58.32 59.00 59.53 59.62 59.51 58.73 56.09 52.10 54.49 55.28 55.70 55.95 55.17
40.06 39.94 41.82 34.56 44.61 41.04 40.67 42.21 43.01 43.59 41.16 43.95 42.57 43.66 46.74 49.39 45.90 45.69 46.10 50.12 53.03 54.21 56.07 56.51 56.40 55.03 52.79 53.23 54.39 55.12 57.37 55.97 54.28 53.74 54.89 55.48 55.24 55.81 55.77 57.11 58.58 59.05 60.26 59.98 60.11 59.52 58.70 54.93 55.03 55.41 54.97 55.11 55.17 54.71
34.10 40.78 37.67 40.99 41.76 40.61 42.67 40.56 42.31 42.48 43.31 42.47 43.92 48.93 49.21 47.00 43.24 43.22 48.93 52.48 54.33 55.08 56.11 56.06 55.83 55.52 55.77 56.87 55.99 56.85 58.65 59.30 56.95 55.01 55.85 57.03 57.09 56.63 56.99 57.34 57.36 57.86 61.86 62.32 60.52 58.88 56.21 54.41 54.02 54.06 54.22 54.64 47.56 54.35
35.66 37.62 44.75 48.53 46.03 46.16 44.93 46.59 48.43 46.19 42.51 41.99 47.03 45.89 46.52 41.90 42.41 47.92 53.43 55.79 54.55 54.98 54.91 53.80 54.00 54.89 55.70 57.41 60.01 60.79 60.58 60.60 60.10 59.60 60.80 60.94 60.57 60.17 59.24 58.30 56.62 59.81 60.57 60.66 59.24 57.22 54.62 54.70 55.73 55.90 55.89 56.38 56.51 56.61
39.85 40.97 38.88 43.42 42.58 44.27 40.97 42.73 42.84 42.02 45.54 49.63 48.25 42.81 42.68 42.27 42.58 48.01 49.73 53.22 52.97 54.10 55.45 55.76 54.74 54.10 56.77 57.99 59.28 60.00 60.35 61.18 60.64 60.62 60.71 60.74 61.10 61.59 60.97 60.20 58.60 49.36 57.33 60.62 59.38 58.06 57.48 58.43 57.62 56.58 56.12 55.84 56.36 57.67
39.96 43.26 44.22 41.54 43.15 44.12 44.41 43.98 45.71 49.33 50.20 48.91 43.20 41.72 42.99 47.15 49.11 49.70 51.35 54.27 56.32 57.17 55.38 53.82 54.19 55.40 57.06 59.19 60.01 60.51 60.66 59.99 57.60 55.05 54.58 55.19 56.50 58.17 61.03 60.42 59.86 60.30 60.88 60.56 48.02 52.67 57.93 58.81 58.13 57.80 57.70 57.40 57.53 58.28
41.09 45.57 42.38 42.20 41.06 41.25 45.66 48.60 46.72 49.25 49.80 49.20 48.75 48.05 48.50 50.15 52.97 56.60 56.53 58.42 59.26 58.63 58.85 58.28 58.18 58.24 57.63 58.04 57.53 58.31 60.32 61.10 60.43 57.89 54.54 55.12 56.20 58.91 59.87 59.88 59.75 59.38 59.70 59.66 59.90 59.70 45.15 55.61 54.00 59.28 56.84 56.52 56.09 57.16
45.51 43.76 41.85 42.44 42.22 46.00 46.85 49.55 49.72 49.78 49.37 48.78 49.72 47.45 47.59 52.76 56.48 59.76 59.67 59.58 59.65 58.65 58.08 57.82 58.30 59.01 58.28 57.75 57.35 57.04 56.98 60.54 61.31 60.67 61.04 61.26 61.18 59.66 60.29 60.90 60.38 60.13 59.34 58.40 58.12 57.55 56.92 56.42 56.34 56.10 57.01 57.25 56.27 54.66
44.39 43.28 42.90 44.18 48.47 52.46 52.96 50.44 50.60 49.80 50.52 50.30 51.74 52.80 52.70 54.01 52.61 58.19 59.63 60.79 59.09 57.61 51.88 57.56 57.99 58.46 60.37 60.92 60.98 61.10 44.78 61.04 61.63 61.42 60.51 61.38 61.24 61.36 60.75 60.83 60.50 60.66 60.24 59.12 58.91 58.49 57.87 57.43 57.57 57.66 57.84 57.26 56.89 56.26
48.06 47.77 47.45 49.58 50.38 49.96 52.43 51.41 51.17 51.01 52.60 52.69 53.15 54.07 54.20 53.49 51.19 57.33 61.33 61.67 60.45 59.94 60.01 60.27 60.31 60.43 60.37 60.30 59.75 58.45 53.80 59.60 52.28 40.84 42.14 41.65 44.16 50.69 59.64 60.15 60.58 59.47 58.36 58.03 59.00 57.79 56.88 57.92 58.11 57.81 57.55 57.56 57.42 56.92
MSLP
1015.26 1015.30 1015.52 1015.80 1016.10 1016.39 1016.68 1016.97 1017.17 1017.31 1017.37 1017.40 1017.42 1017.31 1017.05 1016.77 1016.71 1016.22 1014.22 1014.37 1013.53 1011.19 1009.28 1008.94 1008.45 1007.73 1006.98 1006.36 1005.25 1006.04 1005.52 1005.05 1004.44 1003.82 1003.67 1003.62 1003.91 1004.27 1004.61 1004.75 1004.81 1004.65 1004.29 1004.02 1004.17 1004.10 1004.39 1004.85 1005.11 1004.95 1005.32 1005.43 1005.38 1005.87
1014.57 1014.63 1014.83 1015.13 1015.35 1015.73 1016.15 1016.48 1016.77 1017.01 1017.12 1017.17 1017.20 1017.17 1016.95 1016.78 1016.63 1016.44 1014.26 1014.31 1014.14 1012.77 1009.89 1009.64 1009.00 1008.88 1008.71 1008.19 1007.35 1006.65 1006.32 1006.05 1005.64 1004.80 1004.91 1004.88 1004.61 1005.03 1004.79 1004.52 1005.70 1005.42 1005.15 1005.04 1005.11 1004.64 1005.66 1005.76 1005.78 1005.79 1005.96 1005.77 1006.14 1006.46
1013.85 1014.01 1014.19 1014.43 1014.69 1015.19 1015.63 1015.99 1016.37 1016.70 1016.88 1016.93 1016.99 1016.97 1016.80 1016.72 1016.59 1016.43 1015.04 1014.55 1013.77 1012.04 1009.64 1008.92 1007.98 1008.42 1008.53 1008.45 1008.23 1007.18 1006.82 1006.98 1006.55 1006.78 1005.82 1005.51 1005.36 1005.58 1005.04 1005.01 1005.31 1005.90 1006.30 1005.70 1005.86 1005.30 1005.75 1006.06 1006.34 1006.61 1006.47 1006.37 1006.73 1007.01
1013.23 1013.39 1013.66 1013.88 1014.24 1014.75 1015.17 1015.61 1016.03 1016.34 1016.58 1016.67 1016.78 1016.76 1016.61 1016.59 1016.53 1016.41 1015.03 1014.54 1014.02 1012.28 1010.04 1007.92 1008.35 1008.27 1008.59 1008.33 1008.24 1007.88 1007.63 1007.79 1007.40 1007.17 1006.35 1005.89 1005.83 1006.49 1005.62 1006.07 1005.87 1005.87 1006.52 1005.93 1005.79 1006.02 1006.32 1006.36 1006.51 1006.59 1006.93 1007.11 1007.26 1007.55
1012.59 1012.75 1013.03 1013.38 1013.80 1014.32 1014.79 1015.29 1015.75 1016.07 1016.28 1016.47 1016.61 1016.58 1016.45 1016.43 1016.38 1015.91 1014.83 1014.59 1014.29 1013.39 1010.44 1008.37 1008.00 1008.35 1008.25 1008.21 1008.21 1008.24 1007.80 1007.53 1007.34 1007.18 1006.71 1006.45 1006.91 1007.32 1007.01 1006.88 1005.76 1005.95 1005.89 1005.96 1005.17 1005.58 1006.11 1006.01 1006.47 1007.02 1007.17 1007.41 1007.71 1007.98
1011.98 1012.23 1012.49 1012.96 1013.44 1013.91 1014.43 1014.97 1015.51 1015.83 1016.09 1016.31 1016.45 1016.42 1016.34 1016.28 1016.08 1014.91 1013.86 1014.20 1014.18 1013.71 1011.80 1008.77 1008.27 1008.29 1008.31 1008.08 1008.10 1008.19 1007.91 1007.92 1007.53 1007.15 1007.13 1007.63 1008.22 1008.18 1006.87 1006.00 1005.96 1006.14 1006.49 1006.68 1006.59 1006.81 1006.57 1006.70 1006.93 1007.19 1007.40 1007.75 1008.15 1008.46
1011.36 1011.67 1012.06 1012.56 1013.03 1013.59 1014.22 1014.80 1015.28 1015.64 1015.93 1016.12 1016.23 1016.24 1016.18 1016.16 1015.60 1014.76 1014.60 1014.44 1014.63 1013.94 1011.76 1009.27 1007.62 1008.27 1008.54 1008.15 1008.13 1008.19 1008.39 1008.00 1007.68 1007.59 1007.68 1007.70 1008.42 1008.78 1007.33 1006.39 1006.35 1006.83 1007.05 1007.09 1007.25 1007.35 1007.14 1007.06 1006.97 1007.48 1007.79 1008.25 1008.97 1008.94
1010.81 1011.21 1011.67 1012.19 1012.78 1013.39 1014.05 1014.65 1015.11 1015.51 1015.75 1016.01 1016.01 1015.94 1015.99 1016.01 1015.81 1014.66 1013.96 1014.80 1014.72 1013.32 1011.98 1009.78 1007.84 1007.88 1008.26 1007.34 1007.51 1008.23 1007.76 1007.99 1008.16 1007.60 1008.24 1007.94 1008.66 1008.45 1007.33 1006.89 1007.10 1007.28 1007.39 1007.34 1007.38 1007.44 1007.18 1007.21 1007.53 1007.88 1008.26 1008.61 1008.83 1009.09
1010.35 1010.80 1011.35 1011.94 1012.54 1013.20 1013.93 1014.51 1014.97 1015.36 1015.67 1015.78 1015.72 1015.70 1015.55 1015.35 1014.04 1013.76 1014.75 1014.61 1014.35 1013.55 1011.08 1009.75 1007.90 1006.96 1008.07 1007.43 1007.47 1008.02 1007.71 1007.42 1008.21 1007.67 1007.69 1008.17 1007.39 1007.45 1007.11 1007.31 1007.35 1007.55 1007.51 1007.13 1007.49 1007.54 1007.74 1007.64 1007.90 1008.38 1008.75 1009.08 1009.31 1009.59
1009.95 1010.49 1011.09 1011.73 1012.45 1013.18 1013.85 1014.45 1014.95 1015.33 1015.48 1015.53 1015.46 1014.93 1013.84 1013.80 1014.53 1014.77 1014.61 1013.44 1013.00 1012.07 1011.42 1009.60 1008.81 1007.70 1008.05 1007.55 1007.31 1007.38 1007.51 1007.04 1007.20 1007.24 1008.14 1007.75 1006.91 1006.94 1007.91 1008.03 1008.07 1008.07 1008.05 1007.82 1007.50 1007.67 1007.96 1008.18 1008.51 1008.95 1009.48 1009.98 1010.44 1010.78
1009.67 1010.26 1010.94 1011.68 1012.48 1013.22 1013.89 1014.45 1014.94 1015.23 1015.38 1015.12 1014.36 1013.49 1013.78 1014.35 1013.93 1013.07 1012.25 1011.77 1011.08 1010.56 1009.80 1009.10 1008.61 1007.76 1008.45 1007.54 1006.98 1007.51 1006.90 1006.96 1006.77 1006.92 1007.36 1006.64 1006.67 1007.45 1008.38 1008.36 1008.38 1008.31 1008.41 1008.38 1008.25 1008.37 1008.57 1008.75 1009.33 1009.77 1010.39 1011.04 1011.42 1011.79
1009.55 1010.25 1010.97 1011.79 1012.61 1013.31 1013.93 1014.42 1014.76 1014.99 1014.28 1014.54 1014.25 1014.16 1013.65 1013.21 1012.53 1011.90 1011.10 1010.73 1010.27 1009.01 1009.09 1008.82 1008.62 1008.70 1008.60 1008.75 1007.66 1007.90 1007.05 1007.37 1006.60 1007.45 1007.28 1006.45 1007.22 1008.41 1008.67 1008.76 1008.75 1008.67 1008.69 1008.96 1009.38 1009.75 1010.19 1010.62 1010.99 1011.25 1011.56 1011.89 1012.31 1012.68
1009.69 1010.48 1011.29 1012.08 1012.81 1013.45 1014.00 1014.32 1014.51 1014.58 1014.51 1014.29 1013.96 1012.88 1012.22 1012.18 1011.73 1010.67 1009.70 1009.14 1008.60 1008.69 1008.68 1008.85 1008.73 1008.55 1009.12 1008.93 1008.12 1007.70 1007.28 1006.96 1007.51 1007.21 1006.71 1006.69 1008.20 1008.89 1009.25 1009.47 1009.58 1009.71 1009.87 1010.13 1010.47 1010.79 1011.13 1011.54 1011.94 1012.25 1012.45 1012.80 1013.10 1013.33
1010.15 1011.00 1011.81 1012.43 1013.00 1013.57 1013.99 1014.29 1014.48 1014.65 1014.51 1013.33 1012.62 1012.54 1011.50 1010.69 1009.87 1008.99 1008.49 1008.12 1008.37 1008.40 1008.36 1008.35 1008.31 1008.06 1008.43 1008.36 1007.92 1007.50 1007.30 1007.49 1007.16 1006.69 1006.74 1007.60 1008.64 1009.21 1009.61 1009.89 1009.96 1010.18 1010.42 1010.78 1011.18 1011.51 1011.81 1012.14 1012.55 1012.96 1013.19 1013.54 1013.68 1013.96
1010.97 1011.56 1012.21 1012.88 1013.29 1013.66 1014.00 1014.32 1014.49 1014.50 1013.96 1012.88 1012.24 1011.31 1010.77 1009.95 1009.71 1009.28 1009.18 1009.00 1008.76 1008.62 1008.37 1008.32 1008.27 1008.03 1008.11 1008.16 1008.07 1008.04 1007.90 1007.24 1006.93 1006.99 1007.42 1008.12 1009.10 1009.58 1010.01 1010.36 1010.59 1010.84 1011.24 1011.44 1011.69 1012.02 1012.32 1012.60 1012.90 1013.34 1013.71 1013.95 1014.13 1014.27
1011.53 1012.19 1012.80 1013.14 1013.54 1013.89 1014.19 1014.46 1014.56 1014.32 1013.67 1012.83 1012.20 1011.31 1010.82 1010.24 1009.29 1009.15 1008.96 1008.72 1009.08 1008.84 1008.67 1008.37 1008.12 1007.90 1007.65 1007.59 1007.78 1007.50 1007.27 1007.11 1007.30 1007.75 1008.37 1009.06 1009.68 1010.19 1010.60 1010.95 1011.20 1011.10 1011.35 1011.67 1012.10 1012.54 1012.80 1013.03 1013.31 1013.64 1013.89 1014.00 1014.15 1014.41
1011.97 1012.46 1013.04 1013.38 1013.76 1014.11 1014.34 1014.41 1014.15 1013.54 1012.81 1012.48 1011.72 1011.56 1011.20 1010.34 1009.32 1009.45 1009.44 1009.45 1009.68 1008.99 1008.35 1008.28 1007.77 1007.45 1007.85 1007.32 1007.07 1007.30 1007.00 1007.25 1007.90 1008.52 1008.92 1009.42 1009.80 1010.41 1010.73 1010.88 1011.30 1011.56 1011.86 1012.18 1012.50 1012.80 1013.05 1013.35 1013.53 1013.62 1013.87 1014.27 1014.25 1014.41
1012.45 1012.83 1013.21 1013.57 1013.84 1014.26 1014.36 1014.14 1013.46 1012.97 1012.52 1011.99 1011.45 1011.04 1011.17 1010.82 1010.15 1009.85 1009.89 1010.01 1009.61 1008.84 1008.76 1008.15 1007.98 1007.65 1007.29 1006.93 1006.78 1007.02 1007.65 1008.06 1008.25 1008.60 1009.16 1009.83 1010.15 1010.39 1010.63 1010.73 1011.26 1011.59 1011.85 1012.23 1012.47 1012.78 1013.10 1013.29 1013.39 1013.52 1013.98 1014.26 1014.06 1014.08
1012.80 1013.10 1013.55 1013.87 1013.91 1013.85 1013.85 1013.84 1013.50 1012.63 1012.11 1011.62 1011.38 1011.41 1011.28 1010.96 1010.94 1010.75 1010.37 1010.07 1009.91 1009.60 1008.86 1008.40 1007.95 1007.29 1007.03 1007.09 1006.99 1007.19 1007.63 1007.90 1008.41 1008.97 1009.34 1009.94 1010.15 1010.40 1010.62 1010.82 1011.07 1011.28 1011.75 1012.03 1012.38 1012.40 1012.64 1013.20 1013.13 1013.39 1013.61 1013.69 1013.64 1013.86
1013.35 1013.69 1013.92 1014.03 1014.15 1013.47 1013.33 1013.76 1013.74 1012.79 1011.86 1011.49 1011.59 1011.33 1011.09 1010.83 1010.91 1010.68 1010.35 1009.97 1009.72 1009.39 1008.73 1008.11 1007.37 1007.03 1006.89 1006.96 1007.36 1007.35 1007.70 1008.22 1008.39 1008.60 1008.96 1009.38 1009.76 1010.29 1010.42 1010.43 1010.50 1010.96 1011.43 1011.79 1012.06 1012.55 1012.61 1013.02 1013.25 1013.46 1013.42 1013.69 1013.58 1013.62
1013.79 1014.18 1014.35 1014.22 1013.85 1013.25 1013.30 1013.40 1012.95 1012.21 1011.92 1011.45 1011.42 1011.26 1010.75 1010.77 1010.41 1010.10 1009.83 1009.93 1009.75 1008.64 1008.11 1007.89 1007.55 1007.19 1008.03 1007.98 1007.92 1008.17 1008.34 1008.41 1008.29 1008.23 1008.38 1008.79 1009.52 1009.66 1009.89 1010.10 1010.49 1010.68 1011.03 1011.15 1011.44 1012.06 1012.29 1012.16 1012.44 1013.01 1013.38 1013.42 1013.47 1013.57
1014.05 1014.19 1014.21 1014.09 1013.50 1013.19 1012.81 1012.93 1012.19 1012.24 1011.93 1011.20 1011.15 1010.86 1010.29 1009.92 1009.67 1009.64 1009.63 1009.34 1008.59 1008.09 1007.98 1007.92 1007.84 1007.86 1008.08 1008.42 1008.42 1008.69 1008.58 1008.95 1009.03 1008.94 1009.29 1009.35 1009.11 1009.05 1009.20 1009.44 1009.73 1009.79 1010.04 1010.55 1010.97 1011.09 1011.47 1011.76 1012.22 1012.69 1012.95 1012.99 1013.43 1013.19
1014.17 1014.23 1014.14 1013.83 1013.19 1012.95 1012.96 1012.80 1012.09 1011.81 1011.10 1010.62 1010.55 1010.13 1009.63 1009.48 1009.40 1009.91 1009.10 1008.21 1007.78 1007.63 1007.76 1007.79 1008.08 1008.35 1008.28 1008.19 1008.31 1008.60 1008.75 1008.77 1008.54 1008.47 1008.54 1008.64 1008.73 1008.87 1008.97 1008.98 1009.00 1009.11 1009.37 1009.99 1010.49 1010.71 1010.56 1011.43 1012.04 1012.29 1012.47 1012.82 1012.70 1012.54
1014.10 1013.67 1013.48 1013.11 1012.78 1012.55 1012.36 1011.94 1011.84 1011.36 1010.86 1010.24 1009.71 1009.30 1009.05 1008.95 1009.47 1009.14 1008.12 1007.35 1007.26 1007.68 1007.92 1008.28 1008.30 1008.15 1008.21 1008.64 1008.25 1008.08 1008.19 1008.24 1008.31 1008.25 1008.17 1008.23 1008.24 1008.19 1008.31 1008.29 1008.30 1008.43 1008.74 1008.85 1009.29 1010.00 1010.67 1011.21 1011.54 1012.16 1012.13 1012.17 1012.20 1012.11
1013.74 1013.69 1013.36 1013.19 1012.61 1012.16 1011.54 1011.22 1011.05 1010.78 1009.93 1009.54 1009.32 1008.89 1008.69 1009.22 1008.79 1008.10 1007.49 1006.91 1007.51 1007.70 1007.98 1008.17 1008.20 1008.13 1007.94 1007.65 1007.43 1007.51 1007.74 1007.74 1007.67 1007.68 1007.75 1007.82 1007.75 1007.71 1007.69 1007.82 1008.05 1008.15 1008.37 1008.59 1009.39 1009.88 1010.55 1011.37 1011.37 1011.55 1011.84 1011.91 1011.68 1011.58
1013.66 1013.30 1013.16 1012.10 1011.90 1011.49 1010.90 1010.33 1010.08 1009.73 1009.57 1009.19 1008.98 1008.95 1009.11 1008.88 1008.52 1007.74 1007.23 1007.43 1007.95 1008.17 1008.22 1008.35 1008.32 1008.02 1007.74 1007.75 1007.46 1007.19 1007.26 1007.56 1007.58 1007.39 1007.22 1007.11 1007.19 1007.20 1007.16 1007.66 1007.83 1008.03 1008.40 1008.79 1009.07 1009.46 1010.30 1010.94 1011.30 1011.30 1011.31 1011.14 1011.42 1011.44
1013.58 1012.95 1012.38 1012.43 1011.94 1011.66 1010.98 1010.47 1010.13 1009.79 1009.35 1009.15 1008.88 1009.00 1009.01 1008.91 1008.39 1008.06 1007.98 1008.24 1008.41 1008.62 1008.88 1009.24 1009.16 1008.72 1007.91 1007.54 1007.78 1007.65 1007.63 1007.63 1007.53 1007.32 1007.12 1007.19 1007.13 1007.23 1007.25 1007.36 1007.84 1008.05 1008.47 1008.59 1009.10 1009.68 1009.99 1010.50 1010.74 1010.52 1010.23 1010.12 1010.12 1010.21
1013.42 1013.11 1012.22 1012.06 1012.13 1011.95 1011.40 1010.62 1010.03 1009.62 1009.40 1009.51 1009.72 1009.67 1009.94 1010.30 1010.16 1009.78 1009.53 1009.33 1009.26 1008.99 1008.83 1008.86 1008.91 1008.91 1008.24 1007.66 1007.50 1007.32 1007.12 1007.18 1007.21 1007.10 1006.98 1006.91 1006.88 1006.82 1007.03 1007.47 1008.26 1008.55 1008.67 1008.49 1008.41 1008.95 1009.40 1009.32 1009.51 1009.57 1009.59 1009.57 1009.51 1009.58
1013.05 1012.73 1012.37 1011.89 1011.73 1011.43 1010.91 1010.42 1010.08 1009.92 1010.44 1010.62 1011.12 1011.24 1011.27 1010.86 1010.36 1009.85 1009.29 1008.68 1008.26 1007.81 1007.86 1008.09 1008.36 1008.45 1008.10 1007.61 1007.45 1007.27 1006.94 1006.62 1006.46 1006.38 1006.34 1006.10 1006.26 1006.86 1007.32 1007.38 1007.79 1007.80 1007.90 1008.26 1008.95 1009.03 1009.44 1009.08 1008.98 1009.31 1009.07 1008.93 1009.01 1009.26
1013.08 1012.93 1012.52 1011.99 1011.51 1011.06 1010.80 1010.87 1011.14 1011.15 1011.21 1011.45 1011.37 1011.36 1010.78 1010.17 1009.22 1008.65 1008.27 1007.60 1007.12 1006.95 1006.84 1006.72 1007.01 1006.87 1006.82 1006.66 1006.49 1006.64 1006.71 1006.62 1006.38 1005.77 1005.69 1005.59 1005.84 1006.66 1007.07 1006.78 1006.68 1006.82 1007.11 1007.29 1007.89 1008.61 1009.57 1009.34 1009.23 1009.17 1009.22 1008.91 1009.12 1008.93
1012.69 1012.71 1012.38 1011.73 1011.03 1010.56 1010.61 1011.03 1010.98 1011.11 1011.07 1010.62 1010.63 1010.60 1010.14 1009.21 1008.26 1007.90 1007.31 1006.82 1006.29 1005.71 1005.84 1006.01 1006.07 1006.11 1005.98 1005.91 1005.80 1005.97 1005.92 1006.24 1006.42 1006.57 1006.76 1006.39 1006.19 1006.33 1006.36 1006.36 1006.54 1006.66 1006.77 1006.88 1007.15 1007.58 1008.06 1008.43 1008.56 1008.59 1008.29 1008.47 1008.92 1008.98
1011.84 1011.58 1011.27 1010.45 1009.72 1009.55 1009.42 1009.56 1009.67 1009.76 1009.70 1009.63 1009.41 1009.29 1008.76 1008.18 1007.59 1007.37 1007.30 1006.40 1005.84 1005.95 1006.46 1005.88 1005.81 1006.12 1006.33 1006.38 1006.51 1006.62 1007.22 1006.50 1006.49 1006.52 1006.72 1006.51 1006.52 1006.47 1006.57 1006.58 1006.83 1007.02 1007.07 1007.15 1007.39 1007.59 1007.78 1007.71 1007.56 1007.70 1008.18 1008.65 1008.79 1008.83
1010.19 1010.09 1009.95 1009.26 1008.83 1008.63 1008.58 1008.68 1008.51 1008.40 1008.37 1008.21 1008.08 1008.03 1007.77 1007.33 1007.34 1007.36 1007.21 1007.26 1007.32 1007.15 1007.04 1007.01 1007.37 1007.43 1007.27 1007.04 1007.11 1007.31 1007.38 1007.53 1007.83 1007.84 1007.80 1007.68 1007.61 1007.15 1006.72 1006.75 1007.05 1007.40 1007.54 1007.63 1007.83 1008.03 1008.70 1008.21 1008.20 1008.27 1008.22 1008.49 1008.64 1008.83
Wind_Speed
14 15 14 13 13 13 12 10 9 8 5 5 5 5 8 8 9 7 2 1 5 4 6 3 3 4 2 2 3 5 3 3 4 5 4 3 4 4 4 2 4 7 7 7 7 7 12 3 5 10 6 3 5 5
14 13 13 14 14 14 12 10 10 8 6 4 4 5 6 7 8 7 3 1 3 6 6 6 11 12 9 6 5 1 4 1 4 1 1 1 4 3 5 6 5 6 4 7 5 6 2 2 4 6 6 4 3 5
13 13 13 13 14 13 12 11 11 8 7 5 3 5 5 6 6 7 4 4 4 5 6 5 4 2 4 8 9 5 2 2 3 5 2 2 4 3 6 7 4 4 3 6 4 6 2 2 3 2 1 3 4 5
12 13 13 13 13 12 12 13 11 9 7 6 3 5 4 5 5 6 4 2 5 4 5 5 2 1 2 4 7 7 3 2 2 2 3 3 5 2 3 4 6 5 6 7 7 4 3 6 5 3 4 4 4 4
13 13 13 13 13 12 14 13 11 9 7 5 3 4 5 5 6 8 5 3 4 6 5 3 5 2 2 3 7 8 6 5 4 4 4 4 2 4 2 3 8 7 9 8 7 6 5 7 7 6 7 6 4 2
13 13 13 14 14 14 15 13 10 10 8 5 3 4 5 5 7 5 5 5 4 3 5 4 4 2 2 5 7 7 6 3 2 2 1 2 2 5 4 5 3 5 5 7 7 6 8 5 7 8 7 4 3 1
13 13 14 15 14 15 15 12 10 9 8 5 3 4 5 5 6 4 7 5 2 4 4 4 4 5 1 5 5 5 5 2 3 2 4 1 4 4 4 8 3 1 4 3 3 2 5 6 6 6 3 3 3 1
13 14 15 15 15 17 15 13 11 9 6 5 3 4 5 7 9 6 2 11 6 5 4 4 2 5 3 6 6 3 5 5 4 0 2 4 4 4 5 4 3 3 4 3 4 4 4 4 4 5 2 2 4 5
14 15 16 15 17 16 14 12 10 8 5 3 3 6 4 5 4 4 5 9 5 5 4 3 4 4 3 2 1 5 4 6 4 5 3 3 5 6 4 4 2 2 2 5 6 6 1 3 4 4 2 2 5 5
15 16 15 18 18 16 14 12 10 5 2 1 4 4 4 3 7 8 5 6 6 5 5 5 1 3 4 5 6 5 4 6 5 4 4 6 8 5 3 5 6 5 3 3 7 8 5 5 5 3 3 4 6 6
16 16 19 20 18 15 14 13 11 7 3 3 4 1 4 3 5 4 4 5 4 5 5 4 5 3 2 6 5 3 4 5 5 6 5 5 5 6 1 2 2 5 5 2 4 6 5 6 5 4 5 5 6 7
18 21 21 20 18 16 13 11 10 4 2 2 2 1 3 5 3 5 5 3 5 4 5 5 4 5 3 2 4 4 4 4 4 5 5 4 7 7 6 8 9 8 9 10 10 11 11 10 8 7 6 6 7 7
22 22 20 18 17 16 14 11 7 5 4 3 4 5 3 4 3 6 8 5 4 5 5 6 6 5 4 4 2 4 7 4 4 5 5 3 9 8 9 9 10 10 11 11 11 10 9 9 8 7 6 7 6 7
21 20 17 15 15 13 11 10 8 4 3 4 5 4 6 6 5 4 3 2 5 2 5 5 6 4 2 6 1 4 3 3 5 6 6 5 10 11 9 8 8 9 9 10 9 8 8 7 7 7 7 6 6 7
19 18 16 14 12 12 10 8 6 2 2 3 3 4 6 1 2 1 0 3 4 1 4 5 2 4 4 4 2 1 5 5 4 1 2 5 10 10 9 8 9 9 7 6 6 6 7 7 7 7 7 6 6 6
20 13 5 14 12 9 8 6 2 2 2 3 3 3 2 4 5 5 4 5 2 3 2 2 4 4 4 2 5 5 3 4 3 3 4 6 9 8 8 7 4 7 7 7 6 6 6 6 6 6 6 6 6 6
6 3 13 12 11 8 5 2 3 4 2 3 2 3 2 4 3 4 1 3 2 5 4 2 4 3 3 4 3 2 3 2 3 3 4 6 7 6 5 7 8 7 6 6 6 5 6 5 5 4 5 5 5 5
3 9 14 13 8 5 1 1 2 3 3 3 3 4 4 2 1 3 2 3 2 3 2 1 1 4 3 3 3 3 1 2 5 5 5 6 5 3 4 5 7 7 7 6 6 5 5 5 5 4 4 2 2 2
7 7 13 7 2 1 2 1 3 2 1 1 2 2 2 1 2 3 4 1 1 2 3 2 4 3 4 2 1 2 3 4 5 4 5 5 4 4 4 3 3 6 7 7 6 5 5 4 2 3 3 2 2 3
12 13 10 4 2 2 4 2 2 2 4 3 1 3 2 1 1 2 3 3 2 2 4 4 4 3 3 1 1 3 4 4 4 5 5 5 5 6 5 4 4 5 6 7 6 2 5 5 5 4 2 2 1 3
5 2 3 2 1 1 2 2 4 1 1 2 2 2 1 3 5 5 6 5 5 4 5 4 5 2 4 1 3 2 3 4 5 4 3 6 5 3 4 4 5 5 6 6 6 6 6 6 5 5 5 5 2 2
2 2 1 1 1 2 2 1 2 3 3 2 3 3 3 4 4 5 3 6 5 8 8 7 6 6 5 6 6 6 2 4 3 3 1 2 6 6 6 5 6 7 7 5 7 9 8 6 6 6 5 4 3 4
5 3 2 3 2 2 2 1 3 4 4 4 4 3 4 4 2 3 4 4 5 5 6 7 9 11 11 10 8 7 7 7 7 7 7 7 7 6 6 6 7 8 5 6 6 7 6 6 7 6 5 4 4 3
2 0 1 1 1 2 3 3 2 3 3 4 3 3 3 2 4 4 5 5 4 2 3 3 5 6 7 6 8 9 9 9 9 10 9 8 8 8 8 8 8 6 7 6 7 6 7 8 7 8 6 5 4 3
1 2 2 2 2 4 5 6 5 4 4 4 4 4 3 3 4 4 6 2 2 2 1 3 3 4 6 6 5 6 6 8 8 9 9 10 10 9 8 8 8 8 6 6 7 7 8 5 8 7 6 6 6 5
2 2 2 3 4 4 3 5 6 5 3 3 4 1 3 4 4 5 2 2 3 2 1 1 2 3 4 3 4 3 2 4 6 7 7 6 7 8 7 6 6 5 5 5 5 7 8 4 5 8 8 10 8 8
2 2 3 0 2 2 3 3 2 3 3 3 1 3 3 4 3 2 3 2 3 5 6 6 6 7 6 3 1 2 3 3 4 4 3 4 5 5 6 5 5 4 6 8 9 14 13 14 13 13 11 8 7 7
1 3 4 5 2 1 3 3 3 3 2 1 3 2 3 4 3 2 2 2 4 7 6 5 6 7 8 5 4 3 3 3 3 3 3 4 4 3 4 4 3 5 4 7 9 10 9 9 10 9 7 7 6 5
3 3 4 5 5 4 4 3 2 0 3 2 2 2 2 3 2 5 7 7 8 4 3 3 4 5 7 6 5 4 3 4 2 3 6 5 6 4 2 5 7 6 7 9 8 4 9 10 7 7 8 6 5 3
2 1 2 3 4 3 0 1 1 2 2 2 2 3 3 4 6 7 6 6 2 3 4 6 7 6 6 7 6 5 4 3 3 4 3 4 8 9 9 8 5 5 6 8 9 10 3 7 6 6 6 5 4 4
3 4 2 3 3 3 6 4 4 3 3 4 5 3 4 4 3 1 4 4 4 6 8 8 7 7 6 6 6 5 5 4 1 2 3 3 2 5 4 3 3 3 4 4 6 8 10 8 7 8 7 2 4 2
4 6 4 4 4 3 3 5 4 4 4 3 3 4 4 4 4 2 5 4 4 7 3 2 6 6 6 5 4 4 2 3 3 3 1 4 4 3 6 5 4 3 3 4 4 5 7 8 7 5 6 5 4 5
4 5 5 4 4 5 5 4 5 4 4 3 3 4 3 1 5 4 3 5 5 5 5 5 7 6 6 7 7 5 3 6 6 6 7 8 10 8 3 4 4 2 3 4 4 5 6 5 2 6 4 5 5 5
Wind_Direction
247 241 224 229 224 214 217 219 215 215 231 268 291 321 336 344 348 323 2 283 309 300 292 286 317 321 305 330 298 69 192 196 208 217 270 137 259 137 252 324 254 252 241 228 246 263 244 120 156 231 30 57 126 174
238 228 233 234 219 203 207 209 196 203 216 244 278 312 336 336 341 325 255 197 304 264 331 319 294 288 283 319 318 52 12 68 27 166 201 234 195 181 287 246 177 243 278 335 288 33 79 210 307 357 324 117 121 133
228 234 233 226 203 194 198 191 182 200 208 216 260 307 334 337 339 330 307 319 240 268 251 239 212 103 235 235 254 285 133 29 86 357 1 27 250 288 235 236 269 191 238 257 258 154 190 213 205 251 189 97 117 119
228 230 223 209 195 191 190 178 183 196 210 205 239 300 323 335 335 314 288 355 274 291 279 114 161 245 328 256 231 235 32 138 88 267 240 246 260 215 271 357 266 14 162 231 247 235 231 223 224 181 153 149 127 100
224 224 213 198 189 188 180 176 182 191 192 190 228 294 314 327 321 280 261 260 263 299 335 325 298 78 222 203 192 190 214 182 200 195 216 220 35 241 188 283 250 195 242 233 278 33 262 325 176 182 177 170 156 162
222 215 202 190 184 184 173 173 178 185 184 192 229 289 311 319 312 255 210 171 226 255 271 262 77 157 31 174 175 188 192 163 231 246 167 148 59 261 247 251 348 251 254 274 277 350 265 286 182 183 179 172 148 223
215 206 193 181 181 174 164 166 175 179 181 193 238 284 305 309 286 285 359 32 29 286 255 257 193 124 152 158 157 163 195 167 268 138 223 232 174 242 263 256 127 134 342 284 230 246 193 185 182 172 173 167 151 325
206 193 181 176 175 164 161 169 175 176 181 205 254 288 292 289 269 245 154 212 252 274 256 266 200 195 188 187 166 198 177 195 179 222 172 220 142 231 260 248 276 281 272 243 203 211 345 152 150 134 134 149 250 275
195 182 174 172 163 155 158 163 161 165 184 232 288 294 243 222 219 83 99 136 208 298 290 235 258 144 172 160 106 168 231 208 91 231 211 220 199 220 230 231 248 23 300 243 174 209 167 191 147 142 182 229 284 318
180 173 169 160 151 152 153 150 145 161 196 270 244 214 179 105 110 152 185 191 199 190 222 260 49 204 254 175 184 166 203 227 210 178 119 229 248 218 214 275 278 275 332 243 213 208 199 186 161 119 71 42 12 358
169 163 153 144 142 143 148 152 159 165 198 209 203 169 69 122 214 217 194 224 165 222 197 239 246 233 137 219 168 250 185 173 232 139 235 189 232 136 64 23 312 234 191 139 84 78 72 82 101 102 80 34 6 352
157 147 141 140 144 150 153 160 159 185 225 50 13 166 184 212 211 216 198 165 224 235 157 219 180 225 115 296 245 178 211 194 239 129 224 231 103 114 107 92 87 106 130 108 103 95 83 73 60 54 36 21 5 351
138 135 136 141 149 155 164 170 172 110 164 185 217 181 212 151 192 214 186 195 208 174 175 180 162 180 168 229 219 213 204 209 121 210 222 49 123 134 129 118 107 108 110 106 99 94 93 85 68 44 36 29 5 6
123 126 133 142 146 153 161 160 159 159 237 218 175 165 225 177 233 199 227 113 82 202 160 190 139 193 127 193 185 215 78 194 221 232 216 141 155 149 147 135 127 113 107 103 97 91 83 72 75 62 54 43 30 26
121 122 121 126 135 144 149 154 163 218 233 204 206 208 203 306 252 195 336 224 157 180 187 181 162 217 146 157 221 128 188 227 229 224 98 124 161 162 154 141 120 114 98 94 99 91 86 78 78 74 60 59 53 42
112 99 100 135 138 140 140 144 164 243 202 214 236 209 176 233 181 187 192 188 89 233 223 244 196 192 166 173 188 204 217 216 173 178 128 150 168 167 150 132 147 138 134 131 114 103 98 88 82 89 82 60 63 47
89 94 150 139 131 132 146 187 198 205 232 195 190 197 252 308 49 94 327 42 318 213 195 210 222 120 125 212 206 192 225 65 116 120 147 149 159 144 174 180 154 152 141 135 132 128 116 116 118 113 90 69 60 51
73 135 140 141 140 153 149 250 206 191 180 184 217 153 200 283 241 149 94 42 285 214 220 177 130 192 212 203 199 158 174 109 106 115 111 128 136 157 181 178 159 161 156 157 149 140 145 143 149 126 123 113 128 54
128 133 141 143 130 94 115 29 298 173 225 189 205 177 232 275 292 305 275 268 328 302 264 183 242 229 202 212 259 174 147 161 144 139 124 147 156 177 197 182 180 189 180 168 170 188 154 195 129 145 133 161 56 44
115 115 96 47 301 222 124 110 263 240 211 98 194 196 237 208 114 225 264 269 273 260 223 221 234 210 265 188 263 165 155 154 165 163 157 149 160 176 190 232 212 171 189 175 185 179 167 181 190 185 187 83 3 35
108 106 176 303 290 8 84 161 197 270 136 217 109 218 201 200 229 224 232 186 239 235 230 232 266 270 40 40 135 143 143 197 209 245 195 161 165 176 157 176 185 198 192 210 196 188 220 209 178 185 178 220 222 283
85 156 17 270 265 152 155 135 343 118 233 91 201 207 233 219 213 205 224 222 247 239 241 254 245 258 207 212 203 215 148 186 238 251 229 220 225 219 213 211 208 217 220 228 210 212 195 204 182 190 205 212 206 261
155 186 195 214 184 89 126 227 211 176 212 159 184 211 193 198 151 143 238 232 256 252 254 245 246 254 263 268 245 246 240 250 262 250 240 239 248 248 252 253 248 245 222 235 205 238 197 180 170 212 200 214 246 283
184 92 58 60 110 121 164 175 205 212 213 208 202 208 195 174 142 230 250 243 206 148 226 221 228 231 212 228 249 244 244 242 249 254 253 256 258 251 251 259 264 236 250 231 202 203 193 183 183 196 218 223 242 259
39 8 120 308 213 204 196 172 180 207 213 188 201 211 157 182 226 230 239 166 184 211 149 184 210 241 254 256 255 251 237 245 242 243 241 246 248 254 257 250 243 243 237 225 205 196 188 210 195 205 206 224 245 256
76 164 178 195 147 217 174 186 190 181 208 200 202 147 197 227 234 238 186 154 174 158 75 347 311 267 215 219 255 242 250 242 239 247 253 249 246 251 258 229 225 224 223 229 213 168 150 128 223 215 224 225 222 257
221 171 187 200 318 328 260 209 237 249 221 232 207 228 226 230 237 105 79 46 341 344 336 311 284 269 263 267 19 260 229 234 237 251 279 255 260 266 273 257 254 199 169 175 155 155 156 175 207 221 223 226 240 247
267 265 198 155 184 220 291 234 244 242 255 102 256 250 327 6 293 321 258 272 283 275 263 245 216 226 243 239 255 252 230 222 230 254 224 224 221 225 202 132 134 142 133 200 178 170 189 199 201 208 221 238 244 232
199 205 213 199 208 219 236 241 260 28 25 65 52 3 295 241 243 252 283 279 277 255 238 148 136 176 210 208 226 233 230 218 151 143 140 166 146 145 40 143 149 165 182 179 199 230 212 243 214 206 223 240 248 314
233 208 238 265 233 235 4 146 4 359 28 104 173 239 253 246 251 254 249 247 192 150 130 125 145 172 165 180 161 170 195 223 292 343 72 78 106 128 165 175 168 156 166 161 166 175 214 230 190 226 234 243 252 244
151 174 237 234 248 224 197 182 197 205 225 226 199 223 249 282 281 257 32 30 81 119 116 120 127 129 137 141 151 176 149 150 160 286 311 329 160 161 195 161 137 148 172 189 180 176 177 199 206 228 228 183 130 161
199 203 213 228 181 157 168 186 197 205 194 229 188 199 222 202 101 63 23 338 93 87 22 26 104 78 38 36 43 42 304 36 34 8 258 206 218 178 182 186 158 146 152 144 162 168 196 216 212 190 155 176 177 153
199 191 219 244 171 191 175 209 196 178 173 181 133 150 175 42 83 64 76 50 36 20 33 37 49 53 72 66 75 90 65 57 44 35 16 17 13 3 261 155 138 97 154 161 158 125 194 250 208 223 229 254 270 223